Temperature
17 17 17 16 17 17 17 17 17 17 17 17 17 17 17 17 17 17 16 16 16 16 16 16 16 16 16 16 16 16 16 16 16 16 16 15 15 15 15 16 15 15 15
17 17 17 16 16 17 17 17 17 17 17 17 17 17 17 17 17 17 16 16 16 16 16 16 16 16 16 16 16 16 16 16 16 16 16 15 15 15 15 15 15 15 15
17 17 16 16 16 16 17 17 17 17 17 17 17 17 17 17 16 16 16 16 16 16 16 16 16 16 16 16 15 15 16 15 15 15 15 15 15 15 15 15 15 15 15
16 16 16 16 16 16 16 17 17 17 17 17 17 17 17 16 16 16 16 16 16 16 16 16 15 15 15 15 15 15 15 15 15 15 15 15 15 15 15 15 14 14 14
16 16 16 16 16 16 16 16 16 17 17 17 16 16 16 16 16 16 16 16 15 15 15 15 15 15 15 15 15 15 15 15 15 15 15 15 15 14 14 14 14 14 14
16 16 16 16 15 16 16 16 16 16 16 16 16 16 16 16 16 16 15 15 15 15 15 15 15 15 15 15 14 14 14 14 14 15 15 15 14 14 14 14 14 14 14
16 15 15 15 15 15 16 16 16 16 16 16 16 16 16 16 16 15 15 15 15 15 14 14 14 14 14 14 14 14 14 14 14 14 14 14 14 14 14 14 14 14 14
15 15 15 15 15 15 15 16 16 16 16 16 16 15 15 15 15 15 15 15 15 14 14 14 14 14 14 14 14 14 14 14 14 14 14 14 14 14 14 14 14 14 14
15 15 15 15 15 15 15 15 15 15 15 15 15 15 15 15 15 15 15 14 14 14 14 14 14 14 14 13 13 13 13 13 14 14 14 13 14 14 14 14 14 14 13
14 14 14 15 15 15 15 15 15 15 15 15 15 15 15 15 14 14 14 14 14 14 14 14 14 13 13 13 13 13 13 13 13 13 13 13 13 13 13 13 13 13 13
14 14 14 14 14 15 15 15 15 15 14 14 14 14 14 14 14 14 14 14 14 14 13 13 13 13 13 13 13 13 13 13 13 13 13 13 13 13 13 13 13 13 13
14 14 14 14 14 14 14 14 14 14 14 14 14 14 14 14 14 13 13 13 13 13 13 13 13 13 13 13 13 13 13 12 12 12 12 12 12 12 12 12 12 12 12
14 14 14 14 14 14 14 14 14 14 14 14 14 13 13 13 13 13 13 13 13 13 13 13 12 12 12 12 12 12 12 12 12 12 12 12 12 12 11 11 12 12 12
14 14 14 14 14 14 14 14 14 14 13 13 13 13 13 13 13 13 12 12 12 12 12 12 12 12 12 12 12 12 12 12 12 12 11 11 11 11 11 11 11 11 11
14 14 14 13 13 13 13 13 13 13 13 13 13 13 13 12 12 12 12 12 12 12 12 12 12 12 12 12 11 11 11 11 11 11 11 11 11 11 11 10 10 10 10
13 13 13 13 13 13 13 13 13 13 13 12 12 12 12 12 12 12 12 12 12 11 11 11 11 11 11 11 11 11 11 11 11 11 11 10 10 10 10 10 10 10 10
13 13 13 13 13 13 13 13 12 12 12 12 12 12 12 11 11 11 11 11 11 11 11 11 11 11 11 10 11 11 10 10 10 10 10 10 10 10 10 9 9 9 9
13 13 13 13 13 12 12 12 12 12 12 12 11 11 11 11 11 11 11 11 11 11 10 10 10 10 10 10 10 10 10 10 10 10 9 9 9 9 9 9 9 9 9
13 13 13 12 12 12 12 12 12 11 11 11 11 11 11 11 11 11 11 11 10 10 10 10 10 10 10 10 10 10 10 10 9 9 9 9 9 9 9 9 9 9 9
12 12 12 12 12 12 12 11 11 11 11 11 11 11 11 10 10 10 10 10 10 10 10 10 9 9 9 9 9 9 9 9 9 9 9 8 8 8 8 8 8 8 8
12 12 12 12 12 12 11 11 11 11 11 11 10 10 10 10 10 10 10 10 10 10 9 9 9 9 9 8 8 8 9 9 8 8 8 8 8 8 8 8 8 8 8
12 12 12 12 12 11 11 11 11 11 11 10 10 10 10 10 10 10 9 9 9 9 9 9 9 9 8 8 8 7 7 8 8 8 8 8 8 8 8 8 8 8 8
11 11 12 12 11 11 11 11 11 10 10 10 10 10 10 9 9 9 9 9 9 9 9 8 8 8 8 8 7 7 7 6 7 7 7 8 8 8 8 8 8 7 7
11 11 11 11 11 11 11 11 10 10 10 10 10 10 9 9 9 9 9 8 8 8 8 8 8 8 8 8 7 7 7 6 6 6 7 7 7 7 7 7 7 7 7
10 10 10 10 10 10 10 10 10 10 10 10 9 9 9 9 9 8 8 8 8 8 8 8 8 8 7 7 7 7 7 6 6 6 6 7 7 7 7 7 7 7 7
10 10 10 10 10 10 10 10 9 9 9 9 9 9 9 9 9 8 8 8 8 8 8 8 7 7 7 7 7 7 6 6 6 6 6 6 6 6 7 6 6 6 6
Wind_Speed
4 5 10 12 12 12 13 13 13 12 12 12 12 12 12 11 11 10 10 9 9 9 9 9 9 8 8 8 7 7 7 7 7 7 6 6 6 5 5 6 5 5 5
6 8 12 13 13 13 13 12 12 12 12 11 11 11 10 10 10 10 9 9 9 8 8 8 8 7 7 7 7 7 7 7 7 6 6 5 5 4 4 4 4 4 4
7 8 12 13 13 13 12 12 12 12 11 11 11 10 10 9 9 9 9 8 8 8 7 7 7 6 6 6 6 6 6 6 6 6 6 5 4 3 3 3 3 3 4
8 9 11 14 13 13 12 12 12 11 11 11 10 10 9 9 8 8 8 8 8 7 7 7 7 6 5 5 5 6 6 6 6 6 6 5 3 2 2 2 2 2 3
7 9 11 14 13 12 12 12 11 11 10 10 10 9 9 9 9 8 8 8 7 7 7 7 6 6 5 5 5 5 5 6 6 5 6 5 4 2 2 1 1 1 2
7 8 11 14 13 12 11 11 11 10 10 9 9 9 8 8 8 8 8 7 7 7 6 6 6 6 6 5 5 5 5 5 6 6 5 4 3 2 2 2 1 0 1
7 7 10 13 13 12 11 11 10 10 9 9 8 8 8 7 7 7 7 7 7 6 6 6 6 6 6 6 5 5 5 5 5 5 4 3 2 2 2 3 2 1 0
8 7 9 12 12 12 11 11 10 9 9 9 8 8 7 7 7 7 7 6 6 6 5 5 5 5 5 5 5 5 5 5 5 4 3 3 2 2 2 2 3 2 2
7 7 7 8 10 11 11 10 10 9 9 8 8 7 7 7 7 6 6 6 5 5 5 5 5 4 5 5 5 5 5 6 6 3 3 2 3 3 3 3 3 3 3
5 5 6 7 8 8 9 10 10 9 9 8 8 7 7 7 6 6 6 5 5 4 4 4 4 4 5 5 5 5 5 6 5 4 3 3 4 4 4 4 4 4 4
4 3 4 5 6 7 8 8 9 8 8 8 7 7 7 6 6 5 5 5 5 5 4 4 4 4 5 5 5 5 5 4 4 3 3 4 5 6 6 5 5 6 6
5 3 3 4 5 6 6 7 7 6 7 7 6 6 6 6 5 5 5 5 5 5 5 5 5 5 5 5 4 4 3 3 3 3 3 5 6 7 7 6 6 6 6
6 4 3 3 4 5 4 5 5 5 5 5 5 6 5 5 5 5 4 4 4 5 4 5 5 4 3 3 3 3 2 2 2 3 4 6 7 7 7 7 7 8 8
5 5 3 3 3 4 4 4 4 3 3 3 3 5 4 3 3 3 3 3 3 3 3 3 3 3 3 3 2 2 2 2 2 3 4 6 7 7 8 8 8 8 9
5 5 4 4 4 3 4 3 3 2 2 2 3 3 4 3 1 1 1 2 2 2 2 2 2 2 2 2 2 2 2 2 3 3 4 6 7 7 8 8 9 10 10
6 6 4 4 4 4 3 3 3 2 3 2 2 2 3 3 2 2 1 1 1 1 1 1 1 1 1 1 2 2 2 3 3 3 4 5 7 8 8 8 9 10 10
6 5 5 5 4 4 4 3 2 2 3 2 1 2 2 3 3 2 1 1 0 0 1 1 1 1 1 2 3 3 2 2 3 3 4 4 5 7 8 9 9 10 10
5 5 5 5 4 4 3 3 2 2 2 2 2 2 2 2 3 2 1 1 1 0 1 0 0 1 2 2 3 3 3 2 3 3 4 4 4 5 7 9 10 10 11
6 5 5 5 5 4 3 2 2 2 2 1 2 1 1 2 2 2 1 1 1 1 0 0 0 0 1 2 3 3 3 3 3 3 3 4 5 5 5 7 9 10 10
4 4 5 4 4 4 3 2 2 2 1 1 1 1 1 1 2 2 1 1 1 1 0 0 1 1 1 2 3 4 4 3 2 2 3 3 4 5 5 5 6 7 10
3 4 5 5 4 4 3 3 2 2 1 1 1 1 1 1 1 1 1 1 1 1 1 1 1 1 1 1 2 3 3 3 2 2 2 2 3 4 4 4 5 5 6
4 4 4 5 5 5 4 3 2 2 2 2 1 1 1 1 1 1 1 1 1 1 1 1 0 0 1 1 1 1 3 3 3 3 2 3 3 3 3 5 5 6 6
3 5 5 5 5 4 3 3 2 2 2 1 0 1 1 1 2 2 2 1 1 2 2 2 2 1 1 1 0 1 0 2 4 3 2 3 3 3 3 4 5 6 7
4 3 4 4 4 4 4 5 5 3 2 3 2 2 2 1 1 1 1 2 2 2 2 2 2 2 2 2 1 1 2 2 2 3 3 3 3 4 4 4 4 5 6
3 2 3 3 3 3 4 5 5 3 2 1 1 1 1 1 1 1 1 1 2 2 2 2 2 2 2 2 2 1 1 1 2 2 5 5 4 3 3 3 4 4 5
1 2 2 3 3 3 4 4 4 4 2 2 1 2 1 1 1 1 1 1 2 2 2 3 2 2 2 2 2 2 2 2 2 2 4 5 6 5 4 3 3 4 5
Wind_Direction
175 168 149 140 133 126 120 116 112 108 106 104 103 102 100 99 98 95 92 89 88 85 82 79 76 74 72 71 71 66 65 70 71 68 71 79 85 87 89 92 96 98 103
152 154 146 139 133 128 124 120 115 110 106 105 105 104 101 100 98 94 89 85 83 82 81 79 77 74 71 69 68 68 66 64 62 62 64 71 77 86 95 100 108 105 103
135 141 142 137 132 127 124 121 116 112 109 107 105 103 101 100 97 93 89 84 81 79 75 72 72 72 70 69 68 67 66 65 62 58 55 61 71 84 88 96 108 109 107
133 131 135 135 130 127 124 122 119 115 111 108 104 102 101 99 96 92 88 84 82 77 72 69 65 65 68 70 71 70 65 64 63 58 50 51 58 74 73 71 88 104 106
122 123 133 133 130 127 125 123 121 117 113 109 105 104 101 97 93 89 83 80 80 75 70 65 61 58 58 64 69 71 64 57 56 56 52 48 42 46 42 40 67 109 125
113 116 130 132 129 127 126 124 122 118 115 111 109 106 102 96 91 87 82 77 74 72 69 64 59 56 56 59 60 61 59 50 54 54 46 38 31 19 6 360 358 129 164
117 110 126 130 130 128 126 124 122 121 117 114 111 107 102 96 91 87 83 78 73 69 66 63 58 56 55 52 51 49 52 50 56 50 34 25 15 4 358 356 348 346 308
121 107 122 131 130 129 127 125 122 119 117 113 110 107 102 99 94 90 85 80 75 69 64 59 57 54 51 48 45 43 47 49 45 39 21 7 341 334 328 332 333 308 285
108 105 102 118 127 131 129 125 123 120 116 112 108 104 101 97 92 88 84 81 76 69 62 57 54 49 46 43 39 38 42 42 40 31 6 347 331 322 312 300 305 301 287
98 101 100 102 109 117 123 124 122 119 116 112 107 102 99 95 89 83 77 77 73 67 60 56 52 48 43 38 33 36 37 35 34 19 360 331 318 312 311 303 290 289 284
111 102 101 103 101 108 117 121 120 121 116 110 102 97 92 87 83 80 76 75 72 66 58 51 49 46 42 41 38 35 32 34 21 4 342 322 313 307 303 302 302 292 285
157 147 124 121 112 108 113 110 105 106 104 100 98 96 90 86 80 81 79 74 69 67 59 49 48 49 46 46 38 32 35 20 11 341 323 318 313 309 307 305 301 301 295
166 158 149 135 118 112 105 106 96 94 93 94 98 101 97 86 76 74 72 65 60 61 56 45 43 42 43 41 36 31 21 12 354 325 312 310 309 308 308 306 305 304 299
162 168 156 138 127 120 114 113 111 101 98 96 105 110 105 88 77 71 70 67 65 63 55 46 45 32 26 19 19 15 2 357 331 318 311 314 309 308 310 309 309 305 303
174 177 171 156 152 137 125 122 118 116 124 125 121 119 121 116 116 99 78 74 65 66 66 51 46 32 21 9 358 358 339 326 320 315 311 314 313 310 309 309 307 304 301
184 185 175 169 162 145 145 145 144 137 136 126 125 138 137 135 139 139 119 89 66 61 66 77 44 12 343 349 336 335 322 315 314 315 317 315 311 311 311 310 308 307 305
186 179 177 174 158 154 153 150 139 146 139 135 140 154 153 152 160 155 156 171 182 40 54 53 28 33 348 342 326 318 314 309 310 312 313 313 312 310 308 310 309 309 307
178 175 179 174 163 164 155 149 139 143 138 138 147 155 167 176 169 150 168 214 202 135 110 158 296 343 331 325 316 311 311 308 302 300 305 306 308 307 305 307 309 309 310
183 176 172 168 167 169 156 139 133 123 128 133 146 156 167 173 170 157 178 203 173 150 187 247 341 314 305 318 311 308 305 299 294 299 303 300 298 297 297 307 312 311 310
179 172 168 164 163 154 136 116 105 106 107 96 137 175 169 171 172 153 157 166 152 173 249 238 275 315 282 291 314 316 303 294 296 294 292 296 296 296 296 301 306 308 308
160 167 174 165 163 155 148 151 154 183 199 203 221 202 184 184 174 147 159 168 167 199 221 233 260 324 322 328 346 327 316 299 298 289 293 299 300 301 306 306 305 302 305
178 177 174 177 174 174 176 172 169 168 191 203 221 237 210 205 194 184 177 206 202 204 213 222 203 303 313 0 35 345 333 331 328 308 300 295 302 306 308 314 313 308 302
184 187 186 185 177 174 161 137 99 79 59 61 263 269 275 251 222 210 197 196 210 198 216 229 214 207 255 297 170 154 286 280 311 306 303 300 300 301 301 310 310 308 306
206 193 185 181 172 165 156 159 157 167 186 206 208 229 258 255 236 221 208 206 209 217 224 233 229 222 209 253 289 242 231 236 271 308 312 312 305 302 302 311 311 309 309
196 179 182 169 163 157 161 167 168 175 189 186 181 211 236 253 250 242 227 217 217 224 233 234 239 223 213 224 235 252 269 275 244 259 298 317 326 315 310 305 308 313 316
134 136 134 145 161 159 158 161 169 173 168 162 195 207 232 261 249 252 248 235 228 226 232 234 234 228 232 233 240 232 228 235 248 249 275 304 313 316 320 320 321 325 328
Height
1503 1506 1508 1510 1513 1514 1516 1518 1519 1520 1522 1523 1524 1524 1525 1526 1526 1527 1527 1528 1528 1528 1529 1529 1529 1530 1530 1530 1530 1531 1531 1532 1532 1532 1533 1533 1533 1533 1533 1534 1534 1534 1534
1502 1505 1508 1510 1512 1514 1516 1518 1519 1521 1522 1523 1524 1524 1525 1526 1526 1527 1527 1527 1528 1528 1528 1529 1529 1529 1529 1530 1530 1530 1531 1531 1532 1532 1532 1532 1532 1533 1533 1533 1533 1533 1533
1502 1505 1508 1510 1512 1514 1516 1518 1519 1521 1522 1523 1523 1524 1525 1525 1526 1526 1527 1527 1527 1528 1528 1528 1528 1528 1529 1529 1529 1530 1530 1530 1531 1531 1531 1531 1532 1532 1532 1532 1532 1532 1533
1502 1505 1507 1510 1512 1514 1516 1518 1519 1520 1521 1522 1523 1524 1524 1525 1525 1526 1526 1526 1527 1527 1527 1527 1528 1528 1528 1528 1528 1529 1529 1529 1530 1530 1530 1530 1531 1531 1531 1531 1531 1531 1531
1503 1505 1508 1510 1512 1514 1516 1517 1519 1520 1521 1522 1523 1523 1524 1525 1525 1525 1525 1526 1526 1526 1526 1526 1527 1527 1527 1527 1527 1528 1528 1528 1528 1529 1529 1529 1530 1530 1530 1530 1530 1530 1530
1503 1506 1508 1510 1512 1514 1516 1517 1518 1520 1521 1521 1522 1523 1523 1524 1524 1524 1524 1525 1525 1525 1525 1525 1526 1526 1526 1526 1526 1526 1527 1527 1527 1527 1528 1528 1528 1528 1529 1528 1528 1528 1528
1503 1506 1508 1510 1512 1514 1515 1516 1518 1519 1520 1521 1521 1522 1522 1523 1523 1523 1524 1524 1524 1524 1524 1524 1524 1524 1525 1525 1525 1525 1525 1525 1526 1526 1526 1526 1527 1527 1527 1527 1527 1527 1527
1504 1506 1508 1510 1512 1513 1515 1516 1517 1518 1519 1520 1520 1521 1521 1522 1522 1522 1522 1522 1522 1523 1523 1523 1523 1523 1523 1523 1523 1524 1524 1524 1524 1524 1524 1524 1525 1525 1525 1525 1525 1525 1525
1504 1506 1508 1510 1511 1513 1514 1516 1517 1518 1518 1519 1520 1520 1520 1521 1521 1521 1521 1521 1521 1521 1521 1521 1521 1522 1522 1522 1522 1522 1522 1522 1522 1522 1522 1522 1522 1522 1522 1522 1522 1522 1522
1504 1506 1507 1509 1511 1512 1514 1515 1516 1517 1517 1518 1519 1519 1519 1519 1520 1520 1520 1520 1520 1520 1520 1520 1520 1520 1520 1520 1520 1520 1520 1520 1520 1520 1520 1520 1520 1520 1520 1520 1520 1520 1520
1503 1505 1507 1508 1510 1512 1513 1514 1515 1516 1516 1517 1517 1518 1518 1518 1518 1518 1519 1519 1518 1518 1518 1518 1518 1518 1518 1518 1518 1517 1517 1517 1517 1517 1517 1517 1517 1517 1517 1517 1517 1517 1517
1502 1504 1506 1508 1509 1511 1512 1513 1514 1515 1515 1516 1516 1517 1517 1517 1517 1517 1517 1517 1517 1517 1517 1517 1517 1516 1516 1516 1516 1515 1515 1515 1515 1515 1515 1515 1514 1514 1514 1514 1514 1514 1514
1501 1503 1505 1506 1508 1509 1510 1512 1512 1513 1514 1515 1515 1516 1516 1516 1516 1516 1516 1516 1516 1516 1516 1515 1515 1515 1514 1514 1514 1513 1513 1512 1512 1512 1512 1512 1511 1511 1511 1511 1511 1511 1511
1500 1501 1503 1505 1507 1508 1509 1510 1511 1512 1513 1513 1514 1514 1515 1515 1515 1515 1515 1515 1515 1515 1514 1514 1513 1513 1513 1512 1511 1511 1510 1510 1509 1509 1509 1509 1509 1508 1508 1508 1507 1507 1507
1498 1500 1502 1504 1505 1506 1508 1509 1510 1510 1511 1512 1513 1513 1513 1513 1513 1513 1513 1513 1513 1513 1513 1512 1512 1511 1510 1510 1509 1508 1508 1507 1507 1507 1506 1506 1506 1505 1505 1504 1504 1504 1503
1497 1499 1501 1502 1504 1505 1506 1507 1508 1509 1510 1510 1511 1511 1511 1512 1512 1512 1512 1512 1512 1511 1511 1510 1510 1509 1508 1507 1507 1506 1505 1505 1504 1504 1503 1503 1503 1502 1501 1501 1500 1500 1499
1495 1497 1499 1500 1502 1503 1504 1505 1506 1507 1508 1508 1509 1509 1510 1510 1510 1510 1510 1510 1510 1509 1509 1508 1508 1507 1506 1505 1504 1504 1503 1502 1502 1501 1501 1500 1499 1499 1498 1497 1496 1496 1495
1492 1494 1496 1498 1500 1501 1502 1503 1504 1505 1506 1506 1507 1507 1508 1508 1508 1508 1508 1508 1508 1507 1507 1506 1506 1505 1504 1503 1502 1501 1501 1500 1499 1499 1498 1497 1496 1496 1495 1494 1493 1492 1491
1490 1492 1494 1495 1497 1499 1500 1501 1503 1503 1504 1504 1505 1505 1506 1506 1506 1506 1506 1506 1506 1505 1505 1504 1504 1503 1502 1501 1500 1499 1498 1497 1497 1496 1495 1494 1493 1492 1491 1490 1489 1488 1487
1487 1489 1491 1493 1494 1496 1498 1499 1500 1501 1502 1502 1503 1503 1503 1504 1504 1504 1504 1504 1503 1503 1503 1502 1501 1501 1500 1499 1498 1497 1496 1495 1494 1493 1493 1492 1491 1489 1488 1487 1486 1484 1483
1483 1485 1487 1489 1491 1493 1494 1496 1497 1498 1499 1500 1500 1501 1501 1501 1501 1501 1501 1501 1501 1501 1500 1500 1499 1499 1498 1497 1496 1494 1493 1492 1492 1491 1490 1489 1488 1487 1485 1484 1482 1481 1479
1480 1482 1484 1486 1488 1489 1491 1493 1494 1496 1497 1497 1498 1498 1499 1499 1499 1499 1499 1499 1499 1498 1498 1498 1497 1496 1496 1495 1494 1492 1491 1490 1489 1489 1488 1486 1485 1484 1482 1481 1479 1478 1476
1476 1478 1480 1482 1484 1486 1488 1490 1492 1493 1494 1494 1495 1495 1496 1496 1497 1497 1497 1496 1496 1496 1496 1495 1495 1494 1494 1494 1493 1493 1491 1488 1486 1485 1484 1484 1483 1481 1479 1478 1476 1475 1473
1474 1476 1478 1479 1481 1483 1485 1486 1488 1488 1489 1490 1491 1492 1493 1494 1494 1494 1494 1494 1494 1494 1493 1493 1493 1492 1492 1491 1491 1491 1491 1489 1487 1483 1482 1481 1480 1478 1477 1475 1474 1472 1470
1471 1473 1474 1476 1478 1480 1481 1483 1484 1486 1487 1488 1489 1490 1491 1491 1491 1492 1492 1492 1491 1491 1491 1491 1490 1490 1490 1489 1489 1488 1488 1487 1486 1484 1480 1478 1477 1476 1474 1473 1471 1469 1467
1468 1470 1471 1473 1474 1476 1478 1480 1481 1483 1484 1485 1486 1487 1487 1488 1488 1489 1489 1489 1489 1489 1488 1488 1488 1488 1487 1487 1486 1486 1485 1485 1483 1482 1479 1476 1474 1473 1471 1470 1468 1466 1465